Flag for U.S.A. Weather past 2 weeks in Simi Valley, California, U.S.A.

Now
58 °F

Clear.


Feels Like: 57 °F
Forecast: 48 / 70 °F
Wind: 6 mph from West

Location: Van Nuys Airport

Current Time: Feb 27, 2015 at 12:39:21 AM

Latest Report: Feb 26, 2015 at 11:51 PM


Visibility: 10 mi

Pressure: 29.81 "Hg

Humidity: 62%

Dew point: 45 °F

Location of Simi ValleyLocation

Historic Weather in Simi Valley — Graph

°F

Simi Valley temperature yesterday

Maximum temperature yesterday: 70 °F (at 2:51 PM)
Minimum temperature yesterday: 45 °F (at 6:51 AM)
Average temperature yesterday: 58 °F

Past Weeks' High & Low Weather Summary

 TemperatureHumidityPressure
High86 °F (Feb 13, 2:51 PM)96% (Feb 20, 4:51 AM)30.25 "Hg (Feb 20, 4:51 AM)
Low45 °F (Feb 25, 5:51 AM)10% (Feb 13, 2:51 PM)29.80 "Hg (Feb 22, 4:51 PM)
Average61 °F56%30.00 "Hg
* Reported Feb 11 10:51 PM — Feb 26 10:51 PM, Simi Valley, Weather by CustomWeather, © 2015

Note: Actual official high and low records may vary slightly from our data, if they occured in-between our weather recording intervals... More about our weather records

Advertising

Simi Valley weather history for previous 24 hours

 ConditionsComfort  
Time TempWeatherWind HumidityBarometerVisibility
10:51 PM
Thu, Feb 26
59 °FClear.6 mph62%29.82 "Hg10 mi
9:51 PM59 °FClear.7 mph64%29.83 "Hg10 mi
8:51 PM63 °FClear.7 mph40%29.83 "Hg10 mi
7:51 PM59 °FClear.3 mph58%29.84 "Hg10 mi
6:51 PM61 °FClear.3 mph54%29.84 "Hg10 mi
5:51 PM62 °FClear.5 mph48%29.83 "Hg10 mi
4:51 PM64 °FSunny.9 mph50%29.81 "Hg10 mi
3:51 PM68 °FSunny.9 mph49%29.80 "Hg10 mi
2:51 PM70 °FSunny.10 mph46%29.81 "Hg10 mi
1:51 PM69 °FPassing clouds.7 mph45%29.82 "Hg10 mi
12:51 PM68 °FSunny.No wind45%29.85 "Hg10 mi
11:51 AM66 °FPartly sunny.5 mph45%29.88 "Hg10 mi
10:51 AM62 °FScattered clouds.3 mph46%29.92 "Hg10 mi
9:51 AM60 °FSunny.No wind53%29.93 "Hg10 mi
8:51 AM57 °FSunny.No wind62%29.93 "Hg10 mi
7:51 AM51 °FSunny.No wind77%29.95 "Hg10 mi
6:51 AM45 °FSunny.No wind86%29.95 "Hg10 mi
5:51 AM47 °FPassing clouds.No wind83%29.94 "Hg10 mi
4:51 AM46 °FClear.No wind83%29.91 "Hg10 mi
3:51 AM48 °FClear.No wind83%29.93 "Hg10 mi
2:51 AM49 °FClear.No wind80%29.95 "Hg10 mi
1:51 AM49 °FClear.3 mph80%29.98 "Hg10 mi
12:51 AM51 °FClear.No wind77%29.98 "Hg10 mi
Weather by CustomWeather, © 2015

See weather overviewHow to use our weather pages